This demonstration page uses our WeatherBlox Daily Observations layout. Learn more.

38.89511, -77.03637

Hourly Observations for July 15, 2017

Temp ( °F °C ) Dew Point ( °F °C ) Humidity (%) Winds ( mph kmh ) Pressure ( in mb ) Visibility ( mi km ) Precip ( " mm )
12:28 am 00:28 Mostly Cloudy 77 25 74 23.3 90 90 SSW 9 15 29.97 1015 10 16.09344 0 0
12:52 am 00:52 Mostly Cloudy 77 25 74 23.3 90 90 SSW 6 9 29.94 1014 10 16.09344 0 0
1:52 am 01:52 Mostly Cloudy 76 24.4 75 23.9 97 97 SW 5 7 29.94 1014 10 16.09344 0 0
2:15 am 02:15 Partly Cloudy 76 24.4 75 23.9 97 97 S 3 6 29.94 1014 10 16.09344 0 0
2:52 am 02:52 Partly Cloudy 76 24.4 75 23.9 97 97 Calm 29.94 1014 10 16.09344 0 0
3:52 am 03:52 Partly Cloudy 76 24.4 75 23.9 97 97 SSW 5 7 29.94 1014 10 16.09344 0 0
4:52 am 04:52 Mostly Cloudy 76 24.4 74 23.3 94 94 SSW 8 13 29.94 1014 10 16.09344 0 0
5:26 am 05:26 Cloudy 76 24.4 74 23.3 94 94 SW 6 9 29.97 1015 10 16.09344 0 0
5:52 am 05:52 Mostly Cloudy 76 24.4 73 22.8 91 91 SW 8 13 29.94 1014 10 16.09344 0 0
6:52 am 06:52 Cloudy 77 25 73 22.8 88 88 WSW 6 9 29.94 1014 10 16.09344 0 0
7:52 am 07:52 Mostly Cloudy 79 26.1 71 21.7 77 77 W 6 9 29.97 1015 10 16.09344 0 0
8:15 am 08:15 Mostly Cloudy 80 26.7 71 21.7 74 74 W 10 17 29.97 1015 10 16.09344 0 0
8:52 am 08:52 Mostly Cloudy 80 26.7 69 20.6 69 69 W 8 13 29.97 1015 10 16.09344 0 0
9:52 am 09:52 Mostly Cloudy 83 28.3 70 21.1 65 65 WNW 14 22 29.97 1015 10 16.09344 0 0
10:52 am 10:52 Mostly Cloudy 83 28.3 70 21.1 65 65 NNW 14 22 29.97 1015 10 16.09344 0 0
11:52 am 11:52 Mostly Cloudy 86 30 69 20.6 57 57 NW 13 20 29.97 1015 10 16.09344 0 0
12:52 pm 12:52 Mostly Cloudy 88 31.1 67 19.4 50 50 WNW 14 22 29.97 1015 10 16.09344 0 0
1:52 pm 13:52 Mostly Cloudy 88 31.1 64 17.8 45 45 NW 15 24 29.94 1014 10 16.09344 0 0
2:52 pm 14:52 Mostly Cloudy 88 31.1 65 18.3 46 46 NNW 13 20 29.94 1014 10 16.09344 0 0
3:52 pm 15:52 Mostly Cloudy 89 31.7 62 16.7 41 41 NW 10 17 29.91 1013 10 16.09344 0 0
4:52 pm 16:52 Partly Cloudy 88 31.1 63 17.2 43 43 NW 13 20 29.91 1013 10 16.09344 0 0
5:52 pm 17:52 Mostly Sunny 88 31.1 62 16.7 42 42 NNW 8 13 29.91 1013 10 16.09344 0 0
6:52 pm 18:52 Mostly Sunny 87 30.6 62 16.7 43 43 NNW 12 19 29.91 1013 10 16.09344 0 0
7:52 pm 19:52 Mostly Sunny 85 29.4 62 16.7 46 46 NW 12 19 29.91 1013 10 16.09344 0 0
8:52 pm 20:52 Mostly Clear 83 28.3 63 17.2 51 51 N 10 17 29.91 1013 10 16.09344 0 0
9:52 pm 21:52 Partly Cloudy 81 27.2 63 17.2 54 54 N 10 17 29.94 1014 10 16.09344 0 0
10:52 pm 22:52 Partly Cloudy 80 26.7 63 17.2 56 56 N 9 15 29.97 1015 10 16.09344 0 0
11:52 pm 23:52 Mostly Cloudy 79 26.1 62 16.7 56 56 N 9 15 29.97 1015 10 16.09344 0 0

Powered by AerisWeather